Powrót do katalogu

STARLINK-33646

AktywnyŁącznośćVLEO
NORAD 63280·PAYLOAD·🇺🇸 United States

Wystrzelony Mar 15, 2025 z Cape Canaveral Space Force Station

Loading…

Następne Przeloty (najbliższe 24 godziny)

TLE

ŚwieżeSource: CelesTrak SupGP

Epoka: Sep 14, 2026, 22:33 UTC

1 63280C 25053R   26257.94006944  .00029951  00000+0  10851-2 0  2571
2 63280  43.0020 252.7714 0001293 259.2809 306.5555 15.27555415    18

Śledź STARLINK-33646 w czasie rzeczywistym z AllMySat

Download on the App Store